User: anonymous   Login
Location: Fours
(44.3167°N, 6.7000°E)
Time: 06:08:35
(UTC+00:00)
Language:

CZ-4B R/B - Orbit

View from above orbital plane
View from above orbital plane
View from above satellite
View from above satellite

Ground track
Ground track

The orbit data is extracted from the following two-line orbital elements,

1 29093U 06015B   21055.77543893  .00006379  00000-0  11769-3 0  9996
2 29093  97.6320 241.7679 0052263 126.3964 234.2123 15.47971606825498
Epoch (UTC): 24 February 2021 18:36:37
Eccentricity: 0.0052263
inclination: 97.6320°
perigee height: 387 km
apogee height: 458 km
right ascension of ascending node: 241.7679°
argument of perigee: 126.3964°
revolutions per day: 15.47971606
mean anomaly at epoch: 234.2123°
orbit number at epoch: 82549

The dashed part of the orbit path shows where the satellite is in the earth's shadow,  

DLR